Hourly Data Report for July 23, 2021

VICTORIA UNIVERSITY CS
BRITISH COLUMBIA
Current Station Operator: ECCC - MSC

48°27'25.200" N
123°18'16.600" W
60.10 m
1018598
71783
WYJ

Download Data

Hourly Data (July 2021)
Hourly Data Report for July 23, 2021
TIME
LST
Temp Definition
°C
Dew Point Definition
°C
Rel Hum Definition
%
Precip. Amount Definition
mm

Wind Dir Definition
10's deg

Wind Spd Definition
km/h
Visibility Definition
km
Stn Press Definition
kPa
Hmdx Definition


Wind Chill Definition


Weather Definition


00:00 15.1 6.8 58 0.0 25 4   101.41     LegendNANA
01:00 15.2 7.2 59 0.0 25 4   101.42     LegendNANA
02:00 13.1 7.0 66 0.0 20 2   101.45     LegendNANA
03:00 13.2 7.0 66 0.0 23 5   101.46     LegendNANA
04:00 14.4 7.9 65 0.0 23 3   101.49     LegendNANA
05:00 14.5 9.5 72 0.0 25 6   101.54     LegendNANA
06:00 14.9 9.8 72 0.0 23 8   101.60     LegendNANA
07:00 15.1 10.2 72 0.0 23 9   101.65     LegendNANA
08:00 17.2 10.6 65 0.0 20 6   101.68     LegendNANA
09:00 18.3 11.1 63 0.0 20 6   101.72     LegendNANA
10:00 19.1 11.4 61 0.0 19 6   101.74     LegendNANA
11:00 20.3 10.4 53 0.0 21 7   101.77     LegendNANA
12:00 20.9 11.4 54 0.0 21 5   101.77     LegendNANA
13:00 18.8 11.4 62 0.0 8 5   101.78     LegendNANA
14:00 18.4 11.4 64 0.0 9 5   101.77     LegendNANA
15:00 17.5 11.6 68 0.0 10 5   101.75     LegendNANA
16:00 16.6 11.6 72 0.0 10 2   101.68     LegendNANA
17:00 23.2 13.2 53 0.0 21 7   101.63 26   LegendNANA
18:00 23.1 13.3 54 0.0 22 5   101.57 26   LegendNANA
19:00 21.6 13.3 59 0.0 24 4   101.55 25   LegendNANA
20:00 18.9 12.9 68 0.0 24 5   101.53     LegendNANA
21:00 17.6 12.6 72 0.0 25 2   101.55     LegendNANA
22:00 16.8 12.4 75 0.0 24 2   101.54     LegendNANA
23:00 15.2 12.5 84 0.0 24 1   101.53     LegendNANA

Notes on Data Quality.

Legend

  • E = Estimated
  • M = Missing
  • NA = Not Available*
  • [empty] = Indicates an unobserved value
Date modified: